THOR ABLESTAR DEB, 138

Orbit data source: Space-Track

THOR ABLESTAR DEB, 138 is space debris in LEO originally from a launch on Thu, 29 Jun 1961 UTC launched from the Air Force Eastern Test Range (AFETR). Debris objects in space refer to the collection of defunct objects orbiting the Earth. Examples of debris include non-operational satellites, rocket bodies, and fragments generated from explosions, collisions, or faulty payload assembly.

Loading next visibility...
Identifier
138, 1961-015Y
Orbit
LEO
Country
Flag of USUS
Related business
Manufacturer
Unknown
Mission
Spacecraft
Bus & Motor
Unknown
Mass
Unknown
Launch date (UTC)
1961-06-29 (64 years ago)
Launch vehicle
Unknown
Launch site
Air Force Eastern Test Range (AFETR)
Object type
Payload
Rocket body
Debris
Shape & HBR
Unknown shape, 0.3 m
Radar Cross Section
Small (<0.1 m²)

Expand to show TLE details & history
Last TLE update: 18 hours ago

TLE from 18 hours ago
0 THOR ABLESTAR DEB
1 00138U 61015Y   25354.69999780  .00000474  00000-0  34310-3 0  9990
2 00138  67.1529 181.3090 0035274 261.2353  98.4740 14.04523376277765
Epoch: 2025-12-20T16:47Z
TLE epoch observation values (Epoch: 2025-12-20T16:47:59.809Z)
Latitude
-0.00006°
Longitude
-160.21327°
Altitude
884.151 km
Speed
7.409 km/s
True Right ascension
12h 05m 14s
True Declination
0° 00' 00"
Sunlit
Object was in daylight at epoch
Visualization orbit readout
Latitude
Unknown
Longitude
Unknown
Altitude
Unknown
Speed
Unknown
Apparent Right ascension
Unknown
Apparent Declination
Unknown
Sunlit
N/A
Visualization observer readout
Local Sidereal Time
10:03:44
Azimuth
Unknown
Elevation
Unknown
Doppler factor
Unknown
Orbital elements
Apogee altitude
902.106 km
Perigee altitude
850.926 km
Semi-major axis
7,254.653 km
Eccentricity
0.00353
Inclination
67.1529°
RAAN
181.309°
Arg. of periapsis
261.2353°
True anomaly
98.87353°
Mean anomaly
98.474°
Eccentric anomaly
98.67379°
Mean motion
3.51252 °/min
Orbital period
102.49 mins
BSTAR
0.0003431
Loading maneuver chart data...
Computing Atmospheric mass density...

Documentation

Showing up to 5 results
|